CAPE
1156 1362 1447 1610 1241 1027 605 390 785 568 467 559 394 803 798 424 726 892 925 1047 1230 1084 737 382 242 232 153 147 192 295 36 0 29 0 0 0 0 0
1115 1145 1436 1432 568 755 619 925 215 249 71 271 506 615 822 619 498 741 1052 1037 1180 1076 391 328 284 241 180 140 141 323 63 22 0 0 0 0 0 0
965 1014 1040 820 778 811 1076 1299 1200 888 434 368 633 548 552 852 941 1390 1918 1407 1261 900 679 458 621 270 282 247 125 215 110 34 1 0 0 0 0 0
1073 990 942 1006 825 1413 902 651 971 1099 750 659 634 620 436 788 637 979 1326 1402 1189 1243 775 1200 1105 999 1062 974 396 147 148 51 0 0 0 0 0 0
773 589 843 819 932 712 520 499 780 693 632 701 629 603 623 1043 955 829 820 879 1036 884 1051 1275 922 1118 1364 1036 461 151 173 65 0 0 0 0 0 0
734 879 774 659 964 803 579 696 803 525 460 408 450 404 547 1092 1029 844 645 862 595 780 1068 1168 1143 1219 1427 390 188 172 181 106 5 0 0 0 0 0
178 441 240 315 367 292 376 339 300 207 205 167 144 282 483 506 736 901 608 361 604 981 810 853 1102 1299 934 696 683 332 150 225 29 0 0 0 0 0
0 4 24 0 0 8 77 228 345 544 601 722 632 650 574 356 101 241 258 512 541 647 574 635 933 699 528 627 602 439 396 338 175 9 0 0 0 0
0 128 2 0 0 0 0 85 110 119 248 342 113 4 0 0 0 37 131 270 310 370 79 231 89 0 0 71 141 115 305 374 229 149 52 0 0 0
0 0 0 0 0 0 0 0 0 0 0 0 0 0 0 0 0 0 0 0 0 14 0 0 0 0 0 32 6 15 0 0 0 0 0 52 0 0
0 0 0 0 0 0 0 0 0 0 0 0 0 0 0 0 0 0 0 0 0 0 0 0 0 0 0 19 0 0 0 0 0 0 0 90 0 0
0 0 0 0 0 0 0 0 0 0 0 0 0 0 0 0 0 0 0 0 0 0 0 0 0 0 0 0 0 0 0 0 0 0 0 64 0 0
0 0 0 0 0 0 0 0 0 0 0 0 0 0 0 0 0 0 0 0 0 0 0 0 0 0 0 0 0 0 0 0 0 0 0 0 0 0
0 0 0 0 0 0 0 0 0 0 0 0 0 0 0 0 0 0 0 0 0 0 0 0 0 0 0 0 0 0 0 0 0 0 0 0 0 0
0 0 0 0 0 0 0 0 0 0 0 0 0 0 0 0 0 0 0 0 0 0 0 0 0 0 0 0 0 0 0 0 0 0 0 0 0 0
0 0 0 0 0 0 0 0 0 0 0 0 0 0 0 0 0 0 0 0 0 0 0 0 0 0 0 0 0 0 0 0 0 0 0 0 0 0
0 0 0 0 0 0 0 0 0 0 0 0 0 0 0 0 0 0 0 0 0 0 0 0 0 0 0 0 0 0 0 0 0 0 0 0 0 0
0 0 0 0 0 0 0 0 0 0 0 0 0 0 0 0 0 0 0 0 0 0 0 0 0 0 0 0 0 0 0 0 0 0 0 0 0 0
0 0 0 0 0 0 0 0 0 0 0 0 0 0 0 0 0 0 0 0 0 0 0 0 0 0 0 0 0 0 0 0 0 0 0 0 0 0
0 0 0 0 0 0 0 0 0 0 0 0 0 0 0 0 0 0 0 0 0 0 0 0 0 0 0 0 0 0 0 0 0 0 0 0 0 0
0 0 0 0 0 0 0 0 0 0 0 0 0 0 0 0 0 0 0 0 0 0 0 0 0 0 0 0 0 0 0 0 0 0 0 0 0 0
0 0 0 0 0 0 0 0 0 0 0 0 0 0 0 0 0 0 0 0 0 0 0 0 0 0 0 1 1 0 0 0 0 0 0 0 0 3
0 0 0 0 0 0 0 0 0 0 0 0 0 0 0 0 0 0 0 0 0 0 0 0 0 0 0 1 0 0 0 0 0 0 0 1 2 1
CIN
-29 -38 -40 -35 -42 -50 -87 -110 -33 -21 -21 -39 -32 -29 -33 -46 -50 -27 -17 -15 -31 -35 -37 -60 -91 -105 -148 -203 -193 -186 -371 -0 -479 -0 -0 -0 -0 -0
-18 -27 -31 -37 -49 -51 -56 -45 -48 -26 -59 -43 -51 -52 -45 -35 -33 -25 -19 -20 -24 -23 -44 -66 -91 -102 -118 -189 -218 -155 -331 -451 -0 -0 -0 -0 -0 -0
-15 -14 -10 -25 -30 -39 -47 -42 -40 -41 -22 -27 -29 -36 -42 -35 -35 -32 -26 -21 -35 -24 -44 -74 -87 -110 -96 -122 -255 -181 -267 -446 -235 -0 -0 -0 -0 -0
-11 -11 -11 -10 -6 -14 -39 -44 -45 -39 -31 -21 -40 -50 -33 -56 -35 -33 -39 -49 -46 -53 -44 -49 -51 -66 -77 -91 -159 -238 -249 -397 -0 -0 -0 -0 -0 -0
-10 -19 -19 -12 -7 -16 -23 -28 -35 -46 -40 -32 -35 -48 -34 -39 -49 -62 -73 -77 -78 -74 -58 -57 -71 -62 -58 -50 -112 -227 -242 -379 -0 -0 -0 -0 -0 -0
-15 -13 -10 -17 -19 -23 -28 -25 -31 -39 -40 -43 -40 -48 -51 -44 -53 -76 -109 -108 -120 -99 -96 -83 -76 -55 -51 -118 -184 -189 -174 -289 -394 -0 -0 -0 -0 -0
-94 -57 -93 -86 -56 -69 -56 -52 -57 -71 -79 -83 -84 -77 -59 -60 -49 -34 -67 -145 -120 -62 -122 -88 -69 -41 -71 -64 -52 -113 -196 -148 -330 -0 -0 -0 -0 -0
-10 -36 -191 -0 -0 -181 -120 -78 -72 -49 -39 -33 -36 -35 -37 -53 -115 -89 -97 -70 -64 -71 -93 -64 -50 -68 -77 -46 -32 -66 -93 -120 -147 -324 -0 -0 -0 -0
-0 -84 -116 -0 -0 -0 -0 -105 -79 -57 -84 -60 -44 -57 -0 -0 -0 -104 -97 -57 -22 -36 -89 -90 -110 -0 -0 -191 -127 -117 -64 -71 -99 -126 -238 -0 -0 -0
-0 -0 -0 -0 -0 -0 -0 -0 -0 -0 -0 -0 -0 -0 -0 -0 -0 -0 -0 -0 -0 -12 -0 -0 -0 -0 -0 -167 -97 -147 -0 -0 -0 -0 -0 -190 -0 -0
-0 -0 -0 -0 -0 -0 -0 -0 -0 -0 -0 -0 -0 -0 -0 -0 -0 -0 -0 -0 -0 -0 -0 -0 -0 -0 -0 -149 -0 -0 -0 -0 -0 -0 -0 -130 -0 -0
-0 -0 -0 -0 -0 -0 -0 -0 -0 -0 -0 -0 -0 -0 -0 -0 -0 -0 -0 -0 -0 -0 -0 -0 -0 -0 -0 -0 -0 -0 -0 -0 -0 -0 -0 -123 -0 -0
-0 -0 -0 -0 -0 -0 -0 -0 -0 -0 -0 -0 -0 -0 -0 -0 -0 -0 -0 -0 -0 -0 -0 -0 -0 -0 -0 -0 -0 -0 -0 -0 -0 -0 -0 -0 -0 -0
-0 -0 -0 -0 -0 -0 -0 -0 -0 -0 -0 -0 -0 -0 -0 -0 -0 -0 -0 -0 -0 -0 -0 -0 -0 -0 -0 -0 -0 -0 -0 -0 -0 -0 -0 -0 -0 -0
-0 -0 -0 -0 -0 -0 -0 -0 -0 -0 -0 -0 -0 -0 -0 -0 -0 -0 -0 -0 -0 -0 -0 -0 -0 -0 -0 -0 -0 -0 -0 -0 -0 -0 -0 -0 -0 -0
-0 -0 -0 -0 -0 -0 -0 -0 -0 -0 -0 -0 -0 -0 -0 -0 -0 -0 -0 -0 -0 -0 -0 -0 -0 -0 -0 -0 -0 -0 -0 -0 -0 -0 -0 -0 -0 -0
-0 -0 -0 -0 -0 -0 -0 -0 -0 -0 -0 -0 -0 -0 -0 -0 -0 -0 -0 -0 -0 -0 -0 -0 -0 -0 -0 -0 -0 -0 -0 -0 -0 -0 -0 -0 -0 -0
-0 -0 -0 -0 -0 -0 -0 -0 -0 -0 -0 -0 -0 -0 -0 -0 -0 -0 -0 -0 -0 -0 -0 -0 -0 -0 -0 -0 -0 -0 -0 -0 -0 -0 -0 -0 -0 -0
-0 -0 -0 -0 -0 -0 -0 -0 -0 -0 -0 -0 -0 -0 -0 -0 -0 -0 -0 -0 -0 -0 -0 -0 -0 -0 -0 -0 -0 -0 -0 -0 -0 -0 -0 -0 -0 -0
-0 -0 -0 -0 -0 -0 -0 -0 -0 -0 -0 -0 -0 -0 -0 -0 -0 -0 -0 -0 -0 -0 -0 -0 -0 -0 -0 -0 -0 -0 -0 -0 -0 -0 -0 -0 -0 -0
-0 -0 -0 -0 -0 -0 -0 -0 -0 -0 -0 -0 -0 -0 -0 -0 -0 -0 -0 -0 -0 -0 -0 -0 -0 -0 -0 -0 -0 -0 -0 -0 -0 -0 -0 -0 -0 -0
-0 -0 -0 -0 -0 -0 -0 -0 -0 -0 -0 -0 -0 -0 -0 -0 -0 -0 -0 -0 -0 -0 -0 -0 -0 -0 -0 -0 -0 -0 -0 -0 -0 -0 -0 -0 -0 -0
-0 -0 -0 -0 -0 -0 -0 -0 -0 -0 -0 -0 -0 -0 -0 -0 -0 -0 -0 -0 -0 -0 -0 -0 -0 -0 -0 -1 -0 -0 -0 -0 -0 -0 -0 -0 -0 -0
Wind_Speed
20 20 17 13 15 14 12 15 19 19 19 16 15 22 23 26 11 16 3 4 6 7 3 6 7 5 4 6 13 20 23 22 22 24 24 26 26 26
21 21 21 20 21 20 21 21 20 20 22 18 21 20 23 27 25 9 1 3 5 5 2 3 4 2 3 2 6 15 20 22 22 23 26 27 27 27
17 18 21 21 22 21 19 20 21 20 22 23 22 23 24 27 28 25 15 1 9 23 17 20 23 5 7 6 4 7 15 20 20 21 24 26 26 27
19 17 21 21 20 18 21 21 21 21 20 22 23 24 25 25 26 26 27 28 30 30 29 30 29 25 17 15 5 10 15 20 20 19 20 24 26 25
18 15 17 16 14 16 19 19 19 20 22 22 23 24 23 27 28 28 29 30 30 30 28 29 28 26 27 26 6 16 18 20 20 19 18 21 23 23
19 21 18 16 16 16 17 19 20 22 23 24 24 26 25 27 26 30 31 31 31 30 29 28 26 27 28 30 29 17 17 20 18 18 18 20 22 22
19 19 18 17 16 17 18 20 21 21 23 23 25 25 27 29 29 30 31 33 32 29 31 28 29 29 31 31 32 25 19 19 19 18 16 17 20 22
23 24 21 20 19 19 20 20 21 22 22 22 23 26 26 27 29 30 30 31 30 29 31 29 30 30 31 32 32 31 31 27 23 22 16 15 18 19
10 11 18 20 20 20 20 20 21 22 21 22 25 27 29 28 27 28 29 30 29 30 31 29 32 33 33 31 31 33 34 31 30 29 25 18 15 15
10 13 14 18 20 20 21 21 21 22 24 25 26 27 27 27 26 25 26 28 28 28 32 31 32 33 31 30 32 34 34 35 36 37 35 31 26 20
12 13 15 17 19 20 20 21 22 23 25 25 25 24 21 24 26 27 29 29 30 28 33 34 33 33 28 28 31 35 37 37 39 38 36 32 31 28
12 15 17 18 20 21 21 22 23 25 25 24 21 22 24 27 29 29 29 30 31 29 35 34 33 35 30 27 35 35 37 39 38 36 36 34 32 32
13 17 18 19 20 22 21 22 23 23 21 20 21 24 26 28 28 30 30 30 31 29 34 32 32 33 31 36 35 33 38 39 37 35 32 36 34 34
13 17 19 19 19 21 20 19 20 21 21 22 24 26 28 30 30 30 30 30 29 28 31 32 31 35 36 35 36 40 38 38 34 35 37 38 37 38
14 17 17 15 16 18 19 19 21 22 23 23 24 26 27 28 29 31 31 31 30 31 32 33 35 37 35 37 40 39 40 37 37 41 42 41 40 40
15 15 14 15 16 18 19 21 21 22 22 24 25 26 28 29 31 32 33 34 32 33 34 37 38 39 39 38 39 38 39 39 43 44 45 42 41 38
15 14 15 16 18 18 19 21 22 23 24 25 26 27 28 29 31 32 33 34 35 38 39 39 38 39 36 39 37 38 42 43 45 48 47 46 43 43
13 15 17 17 18 20 21 22 22 24 25 26 27 28 29 31 32 33 34 35 37 39 41 41 43 43 41 35 34 43 41 48 47 45 46 51 51 45
15 15 16 18 19 20 22 23 24 25 25 26 27 29 30 31 32 34 35 36 38 39 40 41 43 44 48 49 41 35 50 48 50 51 48 49 54 54
14 17 17 18 20 22 23 24 24 25 25 27 28 30 31 33 34 35 37 39 40 40 41 40 41 44 46 48 51 49 45 49 51 54 55 54 52 53
16 17 17 19 20 21 22 23 24 24 26 27 29 30 32 34 35 37 38 40 41 42 44 45 45 44 44 45 50 51 47 45 48 53 55 57 60 61
16 17 18 18 19 20 22 23 23 24 26 27 29 31 33 34 36 38 40 41 43 44 45 45 45 46 46 49 53 55 56 53 50 49 48 49 54 60
16 18 18 17 17 20 22 23 24 24 25 28 30 32 33 35 36 38 40 41 42 44 45 47 46 46 47 49 52 54 55 58 58 57 53 49 52 54
Wind_Direction
252 269 289 344 343 31 108 211 267 253 257 270 262 291 342 312 45 44 67 262 277 287 55 73 74 71 52 53 59 54 52 54 56 56 57 56 58 63
259 267 277 290 282 300 307 296 286 286 286 316 294 279 332 305 309 259 212 243 276 302 76 314 55 87 327 12 53 55 50 48 52 53 52 54 56 58
307 298 236 255 277 294 312 310 312 319 313 290 301 305 312 320 318 319 27 203 286 322 305 313 320 298 296 299 27 66 55 49 52 54 50 48 54 54
284 306 289 289 303 315 307 307 315 325 338 325 322 315 326 348 342 346 350 352 342 332 327 327 319 311 301 298 27 66 60 49 54 59 57 48 47 52
307 315 309 322 341 337 329 325 326 325 327 334 328 338 347 336 338 336 334 332 332 323 316 321 319 316 317 315 342 59 53 47 52 55 57 50 46 47
303 295 306 323 331 335 334 330 329 324 325 326 327 327 340 336 345 336 328 331 319 319 319 317 316 319 327 348 21 54 51 43 46 49 50 47 42 43
307 313 320 327 330 330 331 326 329 330 330 331 328 329 329 329 331 330 330 327 325 341 323 320 325 338 348 346 350 18 31 34 37 37 39 40 35 36
294 291 308 320 322 323 324 327 325 326 330 336 336 332 334 332 331 329 332 333 340 345 333 330 343 346 345 349 346 355 356 7 17 20 28 30 26 27
346 337 311 319 323 324 329 336 332 335 334 333 329 325 324 328 334 335 333 333 334 334 338 342 342 339 341 348 353 350 347 357 1 4 13 21 26 24
343 340 336 329 327 326 327 329 331 333 331 331 331 327 327 328 336 341 339 336 335 338 340 337 338 336 340 348 347 350 351 350 347 345 345 353 1 11
337 337 335 334 334 333 334 331 330 330 331 335 334 344 5 357 352 345 338 337 336 339 338 332 333 334 343 346 345 340 337 338 333 338 336 350 351 355
343 337 337 336 331 333 331 328 326 326 328 336 348 348 345 345 346 349 343 337 334 332 335 333 335 333 334 341 336 338 338 332 329 332 334 346 348 347
329 331 331 335 335 332 334 331 328 332 337 341 341 339 339 341 341 343 344 342 338 337 337 337 336 334 334 326 332 338 334 332 332 334 340 334 338 341
326 323 329 337 340 341 342 342 339 340 340 338 337 335 336 336 337 339 341 342 343 346 345 347 341 337 332 329 327 325 330 330 335 332 329 327 327 327
330 327 328 343 345 340 342 342 339 337 338 339 338 337 335 337 336 333 335 336 338 337 340 342 337 333 333 327 322 327 326 328 328 325 323 322 322 321
326 331 347 345 344 339 340 343 344 344 344 341 339 336 334 335 335 334 331 330 332 334 336 335 333 329 325 326 323 324 326 323 322 321 317 319 321 324
326 335 337 337 338 340 343 344 343 345 343 343 340 339 338 337 335 335 334 332 330 328 328 331 334 333 332 326 325 326 324 323 321 317 315 313 316 316
328 327 327 330 333 333 334 339 345 343 342 343 342 341 338 337 335 335 334 333 329 328 326 328 328 327 329 333 332 324 325 320 320 320 318 310 308 315
324 326 328 329 331 334 333 335 336 343 344 344 344 342 340 338 336 335 335 333 332 330 329 329 328 327 321 317 324 333 321 322 319 316 317 314 307 307
332 326 326 328 329 329 330 331 337 341 342 343 342 339 338 335 334 333 332 330 329 329 329 331 330 328 323 320 316 319 327 321 319 315 313 312 310 309
319 321 324 326 328 329 330 333 334 337 338 337 338 336 334 333 331 330 329 328 327 327 325 325 326 327 325 323 318 319 322 324 321 316 314 311 309 307
317 319 322 325 327 328 329 332 334 336 336 335 334 333 333 332 330 329 329 328 327 326 325 325 326 326 325 322 317 317 317 319 321 319 317 314 310 306
318 315 319 326 331 330 329 332 332 333 335 335 334 333 334 333 333 333 331 330 329 328 327 325 325 326 324 323 320 319 318 317 316 315 314 316 313 309